Location: Kaseke
(18.0171°S, 31.0526°E)
Time: 12:37:19
(UTC+00:00)

Hubble Space Telescope - Pass Details

Date: 14 July 2020
Orbit: 536 x 540 km, 28.5° (Epoch: 08 August)

Event Time Altitude Azimuth Distance (km) Brightness Sun altitude
Exits shadow 03:56:39 - 257° (WSW) 1,850 2.8 -7.7°
Reaches altitude 10° 03:56:49 10° 256° (WSW) 1,795 2.8 -7.6°
Maximum altitude 04:00:28 29° 195° (SSW) 994 1.8 -6.8°
Drops below altitude 10° 04:04:09 10° 133° (SE) 1,799 3.8 -6.0°
Sets 04:06:38 0° 121° (ESE) 2,691 4.9 -5.5°
